timestamp,wind_dir_avg,wind_spd_avg,wind_spd_max_dir,wind_spd_gust,battery_voltage,lat,long
2023-11-17 00:04:01+00:00,168.0,5.02,167.0,5.82,12.41,47.59359,-54.27349
2023-11-17 00:14:01+00:00,158.0,4.58,165.0,5.37,12.33,47.59359,-54.27349
2023-11-17 00:24:01+00:00,163.0,4.15,165.0,4.91,12.33,47.59359,-54.27349
2023-11-17 00:34:01+00:00,156.0,4.99,144.0,5.8,12.33,47.59359,-54.27349
2023-11-17 00:44:01+00:00,168.0,5.4,166.0,5.98,12.33,47.59359,-54.27349
2023-11-17 00:54:01+00:00,172.0,5.18,177.0,6.82,12.33,47.59359,-54.27349
2023-11-17 01:04:01+00:00,174.0,5.44,169.0,6.92,12.33,47.59359,-54.27349
2023-11-17 01:14:01+00:00,168.0,5.64,169.0,6.77,12.33,47.59359,-54.27349
2023-11-17 01:24:01+00:00,174.0,6.01,174.0,7.24,12.33,47.59359,-54.27349
2023-11-17 01:34:01+00:00,171.0,5.29,167.0,5.85,12.33,47.59359,-54.27349
2023-11-17 01:44:01+00:00,173.0,4.77,177.0,5.75,12.33,47.59359,-54.27349
2023-11-17 01:54:01+00:00,169.0,4.73,151.0,5.72,12.33,47.59359,-54.27349
2023-11-17 02:04:01+00:00,177.0,4.74,172.0,5.65,12.33,47.59359,-54.27349
2023-11-17 02:14:01+00:00,176.0,4.46,195.0,5.7,12.33,47.59359,-54.27349
2023-11-17 02:24:01+00:00,178.0,3.53,204.0,4.38,12.33,47.59359,-54.27349
2023-11-17 02:34:01+00:00,177.0,4.73,180.0,5.26,12.33,47.59359,-54.27349
2023-11-17 02:44:01+00:00,178.0,4.1,174.0,4.48,12.33,47.59359,-54.27349
2023-11-17 02:54:01+00:00,170.0,4.08,174.0,5.93,12.33,47.59359,-54.27349
2023-11-17 03:04:01+00:00,163.0,4.01,161.0,5.01,12.33,47.59359,-54.27349
2023-11-17 03:14:01+00:00,164.0,3.93,163.0,4.58,12.25,47.59359,-54.27349
2023-11-17 03:24:01+00:00,160.0,4.08,154.0,4.5,12.25,47.59359,-54.27349
2023-11-17 03:34:01+00:00,175.0,3.41,180.0,4.28,12.25,47.59359,-54.27349
2023-11-17 03:44:01+00:00,154.0,3.27,156.0,3.74,12.25,47.59359,-54.27349
2023-11-17 03:54:01+00:00,157.0,3.4,154.0,4.17,12.25,47.59359,-54.27349
2023-11-17 04:04:01+00:00,167.0,3.55,168.0,3.9,12.25,47.59359,-54.27349
2023-11-17 04:14:00+00:00,151.0,3.08,148.0,3.73,12.25,47.59359,-54.27349
2023-11-17 04:24:00+00:00,152.0,3.07,165.0,3.87,12.25,47.59359,-54.27349
2023-11-17 04:34:00+00:00,149.0,3.59,147.0,4.47,12.25,47.59359,-54.27349
2023-11-17 04:44:00+00:00,155.0,2.9,150.0,3.46,12.25,47.59359,-54.27349
2023-11-17 04:54:00+00:00,158.0,3.07,161.0,3.52,12.25,47.59359,-54.27349
2023-11-17 05:04:00+00:00,181.0,2.53,182.0,3.21,12.25,47.59359,-54.27349
2023-11-17 05:14:01+00:00,177.0,2.0,172.0,2.55,12.17,47.59359,-54.27349
2023-11-17 05:24:01+00:00,174.0,1.08,174.0,1.42,12.17,47.59359,-54.27349
2023-11-17 05:34:01+00:00,206.0,1.58,203.0,1.98,12.17,47.59359,-54.27349
2023-11-17 05:44:01+00:00,246.0,0.99,259.0,1.44,12.17,47.59359,-54.27349
2023-11-17 05:54:01+00:00,297.0,2.69,289.0,3.37,12.17,47.59359,-54.27349
2023-11-17 06:04:01+00:00,292.0,4.0,290.0,4.52,12.17,47.59359,-54.27349
2023-11-17 06:14:00+00:00,298.0,3.45,297.0,3.88,12.25,47.59359,-54.27349
2023-11-17 06:24:00+00:00,302.0,3.65,306.0,4.28,12.25,47.59359,-54.27349
2023-11-17 06:34:00+00:00,317.0,4.35,322.0,5.33,12.25,47.59359,-54.27349
2023-11-17 06:44:00+00:00,341.0,4.42,335.0,5.52,12.25,47.59359,-54.27349
2023-11-17 06:54:00+00:00,344.0,5.36,353.0,6.58,12.25,47.59359,-54.27349
2023-11-17 07:04:00+00:00,324.0,5.94,321.0,6.68,12.25,47.59359,-54.27349
2023-11-17 07:14:00+00:00,337.0,5.54,345.0,6.86,12.17,47.59359,-54.27349
2023-11-17 07:24:00+00:00,336.0,6.68,339.0,7.83,12.17,47.59359,-54.27349
2023-11-17 07:34:00+00:00,334.0,7.02,334.0,7.81,12.17,47.59359,-54.27349
2023-11-17 07:44:00+00:00,336.0,6.3,335.0,7.65,12.17,47.59359,-54.27349
2023-11-17 07:54:00+00:00,332.0,5.98,332.0,7.61,12.17,47.59359,-54.27349
2023-11-17 08:04:00+00:00,335.0,6.93,339.0,8.8,12.17,47.59359,-54.27349
2023-11-17 08:14:00+00:00,339.0,5.22,343.0,5.98,12.17,47.59359,-54.27349
2023-11-17 08:24:00+00:00,333.0,5.35,339.0,6.62,12.17,47.59359,-54.27349
2023-11-17 08:34:00+00:00,327.0,5.71,325.0,6.81,12.17,47.59359,-54.27349
2023-11-17 08:44:00+00:00,326.0,5.35,326.0,6.02,12.17,47.59359,-54.27349
2023-11-17 08:54:00+00:00,320.0,6.8,317.0,7.81,12.17,47.59359,-54.27349
2023-11-17 09:04:00+00:00,326.0,7.54,332.0,8.23,12.17,47.59359,-54.27349
2023-11-17 09:14:00+00:00,333.0,7.86,333.0,8.87,12.17,47.59359,-54.27349
2023-11-17 09:24:00+00:00,333.0,7.66,325.0,8.73,12.17,47.59359,-54.27349
2023-11-17 09:34:00+00:00,334.0,7.24,331.0,8.33,12.17,47.59359,-54.27349
2023-11-17 09:44:00+00:00,354.0,6.56,351.0,7.63,12.17,47.59359,-54.27349
2023-11-17 09:54:00+00:00,331.0,6.59,328.0,7.72,12.17,47.59359,-54.27349
2023-11-17 10:04:00+00:00,337.0,6.27,342.0,7.49,12.17,47.59359,-54.27349
2023-11-17 10:14:00+00:00,351.0,5.8,4.0,6.75,12.09,47.59359,-54.27349
2023-11-17 10:24:00+00:00,348.0,5.14,359.0,5.97,12.09,47.59359,-54.27349
2023-11-17 10:34:00+00:00,348.0,4.94,2.0,5.57,12.09,47.59359,-54.27349
2023-11-17 10:44:00+00:00,321.0,6.04,323.0,7.18,12.09,47.59359,-54.27349
2023-11-17 10:54:00+00:00,340.0,4.72,327.0,5.72,12.09,47.59359,-54.27349
2023-11-17 11:04:00+00:00,350.0,3.66,336.0,4.58,12.09,47.59359,-54.27349
2023-11-17 11:14:00+00:00,347.0,4.7,330.0,5.88,12.17,47.59359,-54.27349
2023-11-17 11:24:00+00:00,349.0,4.18,338.0,5.71,12.17,47.59359,-54.27349
2023-11-17 11:34:00+00:00,328.0,4.53,328.0,5.5,12.17,47.59359,-54.27349
2023-11-17 11:44:00+00:00,337.0,3.82,344.0,4.71,12.17,47.59359,-54.27349
2023-11-17 11:54:00+00:00,327.0,5.27,326.0,6.08,12.17,47.59359,-54.27349
2023-11-17 12:04:00+00:00,330.0,4.96,326.0,5.67,12.17,47.59359,-54.27349
2023-11-17 12:14:00+00:00,325.0,4.89,328.0,5.61,13.13,47.59359,-54.27349
2023-11-17 12:24:00+00:00,320.0,5.41,316.0,6.12,13.13,47.59359,-54.27349
2023-11-17 12:34:00+00:00,317.0,5.89,321.0,6.5,13.13,47.59359,-54.27349
2023-11-17 12:44:00+00:00,313.0,5.27,317.0,6.04,13.13,47.59359,-54.27349
2023-11-17 12:54:00+00:00,335.0,4.55,322.0,5.51,13.13,47.59359,-54.27349
2023-11-17 13:04:00+00:00,347.0,4.23,352.0,4.87,13.13,47.59359,-54.27349
2023-11-17 13:14:01+00:00,316.0,4.03,309.0,4.48,12.81,47.59359,-54.27349
2023-11-17 13:24:01+00:00,330.0,4.26,322.0,5.37,12.81,47.59359,-54.27349
2023-11-17 13:34:01+00:00,335.0,4.39,324.0,5.28,12.81,47.59359,-54.27349
2023-11-17 13:44:01+00:00,328.0,4.46,327.0,5.87,12.81,47.59359,-54.27349
2023-11-17 13:54:01+00:00,310.0,4.57,315.0,6.68,12.81,47.59359,-54.27349
2023-11-17 14:04:01+00:00,311.0,4.84,316.0,5.93,12.81,47.59359,-54.27349
2023-11-17 14:14:00+00:00,323.0,4.45,323.0,5.12,13.6,47.59359,-54.27349
2023-11-17 14:24:00+00:00,317.0,3.07,307.0,3.88,13.6,47.59359,-54.27349
2023-11-17 14:34:00+00:00,337.0,4.39,327.0,5.48,13.6,47.59359,-54.27349
2023-11-17 14:44:00+00:00,322.0,4.47,312.0,5.47,13.6,47.59359,-54.27349
2023-11-17 14:54:00+00:00,317.0,2.92,316.0,4.32,13.6,47.59359,-54.27349
2023-11-17 15:04:00+00:00,319.0,3.44,314.0,4.09,13.6,47.59359,-54.27349
2023-11-17 15:14:00+00:00,316.0,4.85,317.0,6.08,13.53,47.59359,-54.27349
2023-11-17 15:24:00+00:00,316.0,4.53,308.0,6.17,13.53,47.59359,-54.27349
2023-11-17 15:34:00+00:00,321.0,4.7,323.0,6.6,13.53,47.59359,-54.27349
2023-11-17 15:44:00+00:00,303.0,4.92,308.0,5.87,13.53,47.59359,-54.27349
2023-11-17 15:54:00+00:00,310.0,4.62,314.0,5.28,13.53,47.59359,-54.27349
2023-11-17 16:04:00+00:00,311.0,3.6,317.0,4.44,13.53,47.59359,-54.27349
2023-11-17 16:14:00+00:00,331.0,4.72,326.0,5.57,13.68,47.59359,-54.27349
2023-11-17 16:24:00+00:00,306.0,4.11,298.0,5.2,13.68,47.59359,-54.27349
2023-11-17 16:34:00+00:00,352.0,2.42,354.0,2.98,13.68,47.59359,-54.27349
2023-11-17 16:44:00+00:00,337.0,3.51,344.0,4.37,13.68,47.59359,-54.27349
2023-11-17 16:54:00+00:00,324.0,4.16,327.0,5.1,13.68,47.59359,-54.27349
2023-11-17 17:04:00+00:00,352.0,3.79,353.0,4.4,13.68,47.59359,-54.27349
2023-11-17 17:14:00+00:00,349.0,2.87,351.0,4.24,13.44,47.59359,-54.27349
2023-11-17 17:24:00+00:00,4.0,3.57,0.0,4.78,13.44,47.59359,-54.27349
2023-11-17 17:34:00+00:00,353.0,1.3,353.0,1.57,13.44,47.59359,-54.27349
2023-11-17 17:44:00+00:00,327.0,4.31,326.0,4.87,13.44,47.59359,-54.27349
2023-11-17 17:54:00+00:00,337.0,4.39,326.0,5.11,13.44,47.59359,-54.27349
2023-11-17 18:04:00+00:00,354.0,3.06,355.0,4.16,13.44,47.59359,-54.27349
2023-11-17 18:14:01+00:00,327.0,3.14,329.0,3.83,13.44,47.59359,-54.27349
2023-11-17 18:24:01+00:00,289.0,4.77,287.0,5.95,13.44,47.59359,-54.27349
2023-11-17 18:34:01+00:00,282.0,1.69,284.0,2.37,13.44,47.59359,-54.27349
2023-11-17 18:44:01+00:00,311.0,2.74,313.0,3.47,13.44,47.59359,-54.27349
2023-11-17 18:54:01+00:00,293.0,1.81,275.0,3.04,13.44,47.59359,-54.27349
2023-11-17 19:04:01+00:00,257.0,2.93,257.0,3.76,13.44,47.59359,-54.27349
2023-11-17 19:14:01+00:00,265.0,2.66,264.0,4.15,13.21,47.59359,-54.27349
2023-11-17 19:24:01+00:00,255.0,3.37,253.0,3.89,13.21,47.59359,-54.27349
2023-11-17 19:34:01+00:00,263.0,2.05,272.0,3.33,13.21,47.59359,-54.27349
2023-11-17 19:44:01+00:00,228.0,2.34,227.0,3.06,13.21,47.59359,-54.27349
2023-11-17 19:54:01+00:00,249.0,3.8,250.0,4.25,13.21,47.59359,-54.27349
2023-11-17 20:04:01+00:00,286.0,4.44,287.0,5.94,13.21,47.59359,-54.27349
2023-11-17 20:14:00+00:00,271.0,4.8,266.0,5.87,12.57,47.59359,-54.27349
2023-11-17 20:24:00+00:00,260.0,4.37,264.0,5.35,12.57,47.59359,-54.27349
2023-11-17 20:34:00+00:00,285.0,3.04,280.0,3.7,12.57,47.59359,-54.27349
2023-11-17 20:44:00+00:00,267.0,2.84,255.0,4.09,12.57,47.59359,-54.27349
2023-11-17 20:54:00+00:00,275.0,3.72,276.0,4.45,12.57,47.59359,-54.27349
2023-11-17 21:04:00+00:00,231.0,3.24,229.0,4.03,12.57,47.59359,-54.27349
2023-11-17 21:14:00+00:00,262.0,2.67,261.0,3.76,12.41,47.59359,-54.27349
2023-11-17 21:24:00+00:00,254.0,1.77,261.0,2.23,12.41,47.59359,-54.27349
2023-11-17 21:34:00+00:00,210.0,2.57,214.0,3.15,12.41,47.59359,-54.27349
2023-11-17 21:44:00+00:00,243.0,1.42,244.0,1.92,12.41,47.59359,-54.27349
2023-11-17 21:54:00+00:00,247.0,1.51,242.0,1.98,12.41,47.59359,-54.27349
2023-11-17 22:04:00+00:00,225.0,0.6,224.0,0.9,12.41,47.59359,-54.27349
2023-11-17 22:14:01+00:00,190.0,1.42,204.0,1.77,12.41,47.59359,-54.27349
2023-11-17 22:24:01+00:00,191.0,1.92,198.0,2.31,12.41,47.59359,-54.27349
2023-11-17 22:34:01+00:00,193.0,2.46,188.0,3.17,12.41,47.59359,-54.27349
2023-11-17 22:44:01+00:00,225.0,2.84,225.0,3.45,12.41,47.59359,-54.27349
2023-11-17 22:54:01+00:00,196.0,3.43,195.0,3.87,12.41,47.59359,-54.27349
2023-11-17 23:04:01+00:00,191.0,4.09,192.0,5.32,12.41,47.59359,-54.27349
2023-11-17 23:14:00+00:00,188.0,3.55,194.0,4.5,12.33,47.59359,-54.27349
2023-11-17 23:24:00+00:00,193.0,3.26,190.0,3.9,12.33,47.59359,-54.27349
2023-11-17 23:34:00+00:00,199.0,4.93,205.0,5.43,12.33,47.59359,-54.27349
2023-11-17 23:44:00+00:00,222.0,4.6,222.0,5.25,12.33,47.59359,-54.27349
2023-11-17 23:54:00+00:00,227.0,3.16,231.0,3.79,12.33,47.59359,-54.27349
